| time (UTC) | temp C | wind direction | speed KPH | gust KPH | rain 1hr cm | rain 24hr cm | rain mn cm | humidity % | barometer mb |
| 20260508054422 | 13 | 321 | 1.6 | 3.2 | 0.00 | 0.00 | 0.00 | 20 | 1016.6 |
| 20260508053919 | 13 | 264 | 1.6 | 3.2 | 0.00 | 0.00 | 0.00 | 19 | 1016.8 |
| 20260508053416 | 13 | 274 | 1.6 | 3.2 | 0.00 | 0.00 | 0.00 | 19 | 1016.9 |
| 20260508052914 | 13 | 257 | 3.2 | 3.2 | 0.00 | 0.00 | 0.00 | 19 | 1016.8 |
| 20260508052411 | 13 | 287 | 4.8 | 8.0 | 0.00 | 0.00 | 0.00 | 19 | 1016.8 |
| 20260508051906 | 13 | 282 | 3.2 | 3.2 | 0.00 | 0.00 | 0.00 | 19 | 1016.6 |
| 20260508051403 | 13 | 293 | 3.2 | 3.2 | 0.00 | 0.00 | 0.00 | 19 | 1016.9 |
| 20260508050859 | 14 | 275 | 1.6 | 3.2 | 0.00 | 0.00 | 0.00 | 18 | 1017.0 |
| 20260508050356 | 14 | 288 | 1.6 | 3.2 | 0.00 | 0.00 | 0.00 | 18 | 1016.9 |
| 20260508045852 | 14 | 271 | 4.8 | 4.8 | 0.00 | 0.00 | 0.00 | 17 | 1016.6 |
| 20260508045350 | 14 | 287 | 3.2 | 3.2 | 0.00 | 0.00 | 0.00 | 17 | 1017.1 |
| 20260508044847 | 14 | 274 | 3.2 | 3.2 | 0.00 | 0.00 | 0.00 | 17 | 1016.9 |
| 20260508044343 | 14 | 287 | 1.6 | 3.2 | 0.00 | 0.00 | 0.00 | 17 | 1016.9 |
| 20260508043839 | 15 | 257 | 1.6 | 1.6 | 0.00 | 0.00 | 0.00 | 17 | 1016.8 |
| 20260508043337 | 14 | 247 | 3.2 | 3.2 | 0.00 | 0.00 | 0.00 | 17 | 1017.0 |
| 20260508042833 | 14 | 259 | 1.6 | 1.6 | 0.00 | 0.00 | 0.00 | 18 | 1016.8 |
| 20260508042331 | 14 | 258 | 1.6 | 1.6 | 0.00 | 0.00 | 0.00 | 17 | 1016.8 |
| 20260508041828 | 14 | 250 | 1.6 | 1.6 | 0.00 | 0.00 | 0.00 | 17 | 1016.8 |
| 20260508041324 | 13 | 251 | 3.2 | 4.8 | 0.00 | 0.00 | 0.00 | 18 | 1016.9 |
| 20260508040821 | 13 | 228 | 3.2 | 3.2 | 0.00 | 0.00 | 0.00 | 18 | 1016.7 |
| 20260508040318 | 14 | 242 | 1.6 | 3.2 | 0.00 | 0.00 | 0.00 | 17 | 1016.8 |
| 20260508035815 | 14 | 254 | 3.2 | 4.8 | 0.00 | 0.00 | 0.00 | 17 | 1016.7 |
| 20260508035313 | 15 | 233 | 4.8 | 8.0 | 0.00 | 0.00 | 0.00 | 17 | 1016.8 |
| 20260508034809 | 15 | 243 | 4.8 | 4.8 | 0.00 | 0.00 | 0.00 | 16 | 1016.8 |
| 20260508034307 | 15 | 281 | 1.6 | 3.2 | 0.00 | 0.00 | 0.00 | 16 | 1016.8 |
| 20260508033803 | 15 | 236 | 1.6 | 3.2 | 0.00 | 0.00 | 0.00 | 16 | 1016.7 |
| 20260508033302 | 15 | 243 | 1.6 | 1.6 | 0.00 | 0.00 | 0.00 | 16 | 1016.4 |
| 20260508032759 | 15 | 301 | 1.6 | 1.6 | 0.00 | 0.00 | 0.00 | 16 | 1016.3 |
| 20260508032256 | 15 | 235 | 3.2 | 3.2 | 0.00 | 0.00 | 0.00 | 15 | 1016.4 |
| 20260508031752 | 16 | 243 | 1.6 | 3.2 | 0.00 | 0.00 | 0.00 | 15 | 1016.1 |
| 20260508031249 | 16 | 226 | 0.0 | 0.0 | 0.00 | 0.00 | 0.00 | 15 | 1016.1 |
| 20260508030745 | 16 | 267 | 3.2 | 4.8 | 0.00 | 0.00 | 0.00 | 14 | 1016.1 |
| 20260508030243 | 16 | 241 | 1.6 | 3.2 | 0.00 | 0.00 | 0.00 | 14 | 1015.9 |
| 20260508025739 | 17 | 244 | 3.2 | 4.8 | 0.00 | 0.00 | 0.00 | 14 | 1015.9 |
| 20260508025236 | 18 | 238 | 1.6 | 3.2 | 0.00 | 0.00 | 0.00 | 14 | 1015.6 |
| 20260508024732 | 19 | 288 | 0.0 | 1.6 | 0.00 | 0.00 | 0.00 | 12 | 1015.7 |
| 20260508024229 | 19 | 284 | 1.6 | 1.6 | 0.00 | 0.00 | 0.00 | 12 | 1015.9 |
| 20260508023726 | 19 | 309 | 1.6 | 3.2 | 0.00 | 0.00 | 0.00 | 11 | 1015.5 |
| 20260508023224 | 19 | 334 | 3.2 | 3.2 | 0.00 | 0.00 | 0.00 | 11 | 1015.3 |
| 20260508022719 | 19 | 280 | 1.6 | 1.6 | 0.00 | 0.00 | 0.00 | 12 | 1015.3 |
| 20260508022216 | 20 | 9 | 1.6 | 1.6 | 0.00 | 0.00 | 0.00 | 13 | 1015.4 |
| 20260508021713 | 20 | 345 | 1.6 | 3.2 | 0.00 | 0.00 | 0.00 | 12 | 1015.0 |
| 20260508021208 | 20 | 313 | 1.6 | 1.6 | 0.00 | 0.00 | 0.00 | 13 | 1015.2 |
| 20260508020706 | 20 | 142 | 0.0 | 0.0 | 0.00 | 0.00 | 0.00 | 14 | 1015.0 |
| 20260508020203 | 21 | 335 | 1.6 | 1.6 | 0.00 | 0.00 | 0.00 | 15 | 1015.3 |
| 20260508015701 | 21 | 201 | 1.6 | 1.6 | 0.00 | 0.00 | 0.00 | 14 | 1015.2 |
| 20260508015157 | 21 | 131 | 0.0 | 0.0 | 0.00 | 0.00 | 0.00 | 14 | 1014.9 |
| 20260508014654 | 21 | 116 | 0.0 | 1.6 | 0.00 | 0.00 | 0.00 | 14 | 1014.8 |
| 20260508014150 | 22 | 112 | 0.0 | 0.0 | 0.00 | 0.00 | 0.00 | 14 | 1014.7 |
| 20260508013646 | 22 | 266 | 1.6 | 1.6 | 0.00 | 0.00 | 0.00 | 13 | 1014.7 |
| 20260508013143 | 23 | 254 | 0.0 | 1.6 | 0.00 | 0.00 | 0.00 | 13 | 1014.7 |
| 20260508012641 | 23 | 197 | 1.6 | 3.2 | 0.00 | 0.00 | 0.00 | 13 | 1014.4 |
| 20260508012138 | 23 | 144 | 3.2 | 3.2 | 0.00 | 0.00 | 0.00 | 13 | 1014.4 |
| 20260508011636 | 24 | 120 | 1.6 | 1.6 | 0.00 | 0.00 | 0.00 | 12 | 1014.8 |
| 20260508011133 | 23 | 234 | 0.0 | 1.6 | 0.00 | 0.00 | 0.00 | 12 | 1014.6 |
| 20260508010630 | 24 | 303 | 1.6 | 1.6 | 0.00 | 0.00 | 0.00 | 13 | 1014.6 |
| 20260508010128 | 25 | 235 | 4.8 | 4.8 | 0.00 | 0.00 | 0.00 | 12 | 1014.7 |
| 20260508005624 | 24 | 189 | 1.6 | 1.6 | 0.00 | 0.00 | 0.00 | 13 | 1014.6 |
| 20260508005121 | 25 | 226 | 1.6 | 1.6 | 0.00 | 0.00 | 0.00 | 12 | 1014.4 |
| 20260508004616 | 25 | 132 | 3.2 | 3.2 | 0.00 | 0.00 | 0.00 | 12 | 1014.9 |
| 20260508004114 | 25 | 28 | 1.6 | 1.6 | 0.00 | 0.00 | 0.00 | 12 | 1014.4 |
| 20260508003610 | 25 | 273 | 3.2 | 4.8 | 0.00 | 0.00 | 0.00 | 12 | 1014.3 |
| 20260508003108 | 25 | 51 | 3.2 | 3.2 | 0.00 | 0.00 | 0.00 | 12 | 1014.7 |
| 20260508002604 | 25 | 204 | 4.8 | 8.0 | 0.00 | 0.00 | 0.00 | 12 | 1014.6 |
| 20260508002102 | 25 | 31 | 3.2 | 4.8 | 0.00 | 0.00 | 0.00 | 12 | 1014.2 |
| 20260508001557 | 25 | 257 | 1.6 | 1.6 | 0.00 | 0.00 | 0.00 | 13 | 1014.7 |
| 20260508001053 | 25 | 235 | 8.0 | 11.3 | 0.00 | 0.00 | 0.00 | 11 | 1014.4 |
| 20260508000549 | 26 | 232 | 3.2 | 3.2 | 0.00 | 0.00 | 0.00 | 11 | 1014.6 |
| 20260508000047 | 25 | 253 | 0.0 | 1.6 | 0.00 | 0.00 | 0.00 | 12 | 1014.4 |
| 20260507235543 | 25 | 252 | 1.6 | 1.6 | 0.00 | 0.00 | 0.00 | 12 | 1014.6 |
| 20260507235041 | 25 | 222 | 6.4 | 11.3 | 0.00 | 0.00 | 0.00 | 12 | 1014.7 |
| 20260507234537 | 25 | 276 | 1.6 | 3.2 | 0.00 | 0.00 | 0.00 | 12 | 1014.8 |
| 20260507234033 | 25 | 181 | 4.8 | 4.8 | 0.00 | 0.00 | 0.00 | 12 | 1014.8 |
| 20260507233530 | 26 | 123 | 1.6 | 3.2 | 0.00 | 0.00 | 0.00 | 12 | 1014.9 |
| 20260507233029 | 26 | 17 | 0.0 | 1.6 | 0.00 | 0.00 | 0.00 | 12 | 1014.8 |
| 20260507232525 | 26 | 174 | 3.2 | 3.2 | 0.00 | 0.00 | 0.00 | 13 | 1015.0 |
| 20260507232022 | 26 | 273 | 1.6 | 3.2 | 0.00 | 0.00 | 0.00 | 12 | 1014.8 |
| 20260507231518 | 25 | 233 | 3.2 | 3.2 | 0.00 | 0.00 | 0.00 | 12 | 1014.7 |
| 20260507231016 | 26 | 279 | 4.8 | 4.8 | 0.00 | 0.00 | 0.00 | 12 | 1015.0 |
| 20260507230513 | 25 | 310 | 6.4 | 8.0 | 0.00 | 0.00 | 0.00 | 11 | 1015.0 |
| 20260507230009 | 26 | 20 | 4.8 | 8.0 | 0.00 | 0.00 | 0.00 | 10 | 1015.4 |
| 20260507225504 | 25 | 236 | 0.0 | 1.6 | 0.00 | 0.00 | 0.00 | 12 | 1015.4 |
| 20260507225000 | 25 | 301 | 1.6 | 1.6 | 0.00 | 0.00 | 0.00 | 12 | 1015.4 |
| 20260507224456 | 26 | 291 | 1.6 | 1.6 | 0.00 | 0.00 | 0.00 | 10 | 1015.3 |
| 20260507223953 | 26 | 247 | 4.8 | 8.0 | 0.00 | 0.00 | 0.00 | 10 | 1015.2 |
| 20260507223449 | 26 | 38 | 0.0 | 0.0 | 0.00 | 0.00 | 0.00 | 12 | 1015.4 |
| 20260507222947 | 26 | 26 | 1.6 | 3.2 | 0.00 | 0.00 | 0.00 | 10 | 1015.6 |
| 20260507222443 | 26 | 187 | 0.0 | 1.6 | 0.00 | 0.00 | 0.00 | 11 | 1015.5 |
| 20260507221940 | 25 | 295 | 4.8 | 8.0 | 0.00 | 0.00 | 0.00 | 10 | 1015.9 |
| 20260507221437 | 24 | 269 | 1.6 | 3.2 | 0.00 | 0.00 | 0.00 | 12 | 1015.7 |
| 20260507220933 | 23 | 138 | 6.4 | 8.0 | 0.00 | 0.00 | 0.00 | 12 | 1015.7 |
| 20260507220431 | 25 | 191 | 1.6 | 3.2 | 0.00 | 0.00 | 0.00 | 13 | 1015.6 |
| 20260507215927 | 24 | 176 | 1.6 | 3.2 | 0.00 | 0.00 | 0.00 | 11 | 1015.9 |
| 20260507215424 | 25 | 125 | 8.0 | 11.3 | 0.00 | 0.00 | 0.00 | 10 | 1015.9 |
| 20260507214921 | 25 | 221 | 4.8 | 11.3 | 0.00 | 0.00 | 0.00 | 11 | 1016.0 |
| 20260507214419 | 25 | 177 | 4.8 | 4.8 | 0.00 | 0.00 | 0.00 | 10 | 1016.0 |
| 20260507213914 | 24 | 26 | 0.0 | 1.6 | 0.00 | 0.00 | 0.00 | 12 | 1016.3 |
| 20260507213411 | 23 | 115 | 3.2 | 3.2 | 0.00 | 0.00 | 0.00 | 12 | 1016.7 |
| 20260507212908 | 23 | 139 | 3.2 | 4.8 | 0.00 | 0.00 | 0.00 | 13 | 1016.6 |
| 20260507212403 | 23 | 95 | 3.2 | 3.2 | 0.00 | 0.00 | 0.00 | 11 | 1016.9 |
| 20260507211900 | 24 | 37 | 3.2 | 3.2 | 0.00 | 0.00 | 0.00 | 11 | 1016.9 |
| 20260507211357 | 23 | 336 | 0.0 | 0.0 | 0.00 | 0.00 | 0.00 | 12 | 1016.8 |
| 20260507210854 | 23 | 66 | 4.8 | 8.0 | 0.00 | 0.00 | 0.00 | 11 | 1017.0 |
| 20260507210351 | 23 | 162 | 4.8 | 8.0 | 0.00 | 0.00 | 0.00 | 12 | 1017.3 |
| 20260507205847 | 22 | 114 | 3.2 | 3.2 | 0.00 | 0.00 | 0.00 | 13 | 1017.0 |
| 20260507205344 | 23 | 100 | 4.8 | 8.0 | 0.00 | 0.00 | 0.00 | 15 | 1017.3 |
| 20260507204840 | 23 | 39 | 8.0 | 11.3 | 0.00 | 0.00 | 0.00 | 15 | 1017.5 |
| 20260507204337 | 22 | 48 | 8.0 | 12.9 | 0.00 | 0.00 | 0.00 | 15 | 1017.6 |
| 20260507203835 | 23 | 7 | 4.8 | 4.8 | 0.00 | 0.00 | 0.00 | 13 | 1017.4 |
| 20260507203333 | 23 | 123 | 1.6 | 3.2 | 0.00 | 0.00 | 0.00 | 12 | 1017.6 |
| 20260507202829 | 23 | 331 | 1.6 | 1.6 | 0.00 | 0.00 | 0.00 | 12 | 1017.7 |
| 20260507202326 | 23 | 313 | 6.4 | 8.0 | 0.00 | 0.00 | 0.00 | 13 | 1018.1 |
| 20260507201821 | 23 | 36 | 1.6 | 1.6 | 0.00 | 0.00 | 0.00 | 13 | 1018.1 |
| 20260507201317 | 23 | 201 | 4.8 | 8.0 | 0.00 | 0.00 | 0.00 | 14 | 1018.2 |
| 20260507200814 | 22 | 223 | 1.6 | 3.2 | 0.00 | 0.00 | 0.00 | 15 | 1018.2 |
| 20260507200309 | 22 | 240 | 1.6 | 1.6 | 0.00 | 0.00 | 0.00 | 17 | 1018.1 |
| 20260507195805 | 22 | 182 | 6.4 | 8.0 | 0.00 | 0.00 | 0.00 | 15 | 1018.2 |
| 20260507195305 | 22 | 343 | 4.8 | 4.8 | 0.00 | 0.00 | 0.00 | 16 | 1018.7 |
| 20260507194800 | 22 | 129 | 4.8 | 4.8 | 0.00 | 0.00 | 0.00 | 17 | 1018.3 |
| 20260507194250 | 21 | 210 | 4.8 | 4.8 | 0.00 | 0.00 | 0.00 | 17 | 1018.4 |
| 20260507193747 | 22 | 102 | 3.2 | 8.0 | 0.00 | 0.00 | 0.00 | 18 | 1018.3 |
| 20260507193244 | 20 | 17 | 4.8 | 4.8 | 0.00 | 0.00 | 0.00 | 19 | 1018.6 |
| 20260507192740 | 21 | 231 | 3.2 | 3.2 | 0.00 | 0.00 | 0.00 | 17 | 1019.0 |
| 20260507192237 | 21 | 6 | 4.8 | 4.8 | 0.00 | 0.00 | 0.00 | 18 | 1019.0 |
| 20260507191733 | 21 | 333 | 1.6 | 3.2 | 0.00 | 0.00 | 0.00 | 22 | 1019.1 |
| 20260507191230 | 20 | 73 | 3.2 | 3.2 | 0.00 | 0.00 | 0.00 | 22 | 1019.1 |
| 20260507190727 | 20 | 167 | 8.0 | 11.3 | 0.00 | 0.00 | 0.00 | 21 | 1019.3 |
| 20260507190225 | 20 | 316 | 1.6 | 1.6 | 0.00 | 0.00 | 0.00 | 24 | 1019.4 |
| 20260507185724 | 19 | 246 | 1.6 | 3.2 | 0.00 | 0.00 | 0.00 | 23 | 1019.7 |
| 20260507185220 | 19 | 42 | 4.8 | 4.8 | 0.00 | 0.00 | 0.00 | 22 | 1019.5 |
| 20260507184718 | 20 | 82 | 4.8 | 11.3 | 0.00 | 0.00 | 0.00 | 23 | 1019.6 |
| 20260507184215 | 20 | 89 | 3.2 | 3.2 | 0.00 | 0.00 | 0.00 | 22 | 1019.8 |
| 20260507183712 | 20 | 311 | 3.2 | 3.2 | 0.00 | 0.00 | 0.00 | 23 | 1019.8 |
| 20260507183209 | 19 | 197 | 3.2 | 4.8 | 0.00 | 0.00 | 0.00 | 23 | 1020.2 |
| 20260507182706 | 19 | 275 | 1.6 | 3.2 | 0.00 | 0.00 | 0.00 | 24 | 1020.2 |
| 20260507182201 | 18 | 357 | 0.0 | 0.0 | 0.00 | 0.00 | 0.00 | 25 | 1020.3 |
| 20260507181658 | 18 | 73 | 4.8 | 4.8 | 0.00 | 0.00 | 0.00 | 24 | 1020.2 |
| 20260507181154 | 18 | 49 | 4.8 | 4.8 | 0.00 | 0.00 | 0.00 | 24 | 1020.3 |
| 20260507180651 | 18 | 115 | 3.2 | 3.2 | 0.00 | 0.00 | 0.00 | 25 | 1020.5 |
| 20260507180148 | 18 | 48 | 1.6 | 1.6 | 0.00 | 0.00 | 0.00 | 25 | 1020.7 |
| 20260507175643 | 17 | 318 | 6.4 | 8.0 | 0.00 | 0.00 | 0.00 | 26 | 1020.5 |
| 20260507175141 | 17 | 47 | 4.8 | 8.0 | 0.00 | 0.00 | 0.00 | 26 | 1020.7 |
| 20260507174638 | 16 | 54 | 6.4 | 8.0 | 0.00 | 0.00 | 0.00 | 27 | 1020.5 |
| 20260507174136 | 17 | 173 | 4.8 | 4.8 | 0.00 | 0.00 | 0.00 | 26 | 1020.8 |
| 20260507173633 | 16 | 8 | 8.0 | 9.7 | 0.00 | 0.00 | 0.00 | 27 | 1020.9 |
| 20260507173129 | 17 | 12 | 3.2 | 8.0 | 0.00 | 0.00 | 0.00 | 26 | 1020.8 |
| 20260507172625 | 16 | 53 | 1.6 | 1.6 | 0.00 | 0.00 | 0.00 | 28 | 1020.8 |
| 20260507172118 | 15 | 25 | 1.6 | 3.2 | 0.00 | 0.00 | 0.00 | 28 | 1021.2 |
| 20260507171613 | 16 | 13 | 4.8 | 4.8 | 0.00 | 0.00 | 0.00 | 28 | 1021.5 |
| 20260507171110 | 15 | 331 | 4.8 | 4.8 | 0.00 | 0.00 | 0.00 | 29 | 1021.6 |
| 20260507170607 | 15 | 123 | 4.8 | 8.0 | 0.00 | 0.00 | 0.00 | 28 | 1021.5 |
| 20260507170104 | 15 | 329 | 1.6 | 1.6 | 0.00 | 0.00 | 0.00 | 29 | 1021.4 |
| 20260507165559 | 16 | 39 | 4.8 | 8.0 | 0.00 | 0.00 | 0.00 | 29 | 1021.5 |
| 20260507165055 | 15 | 14 | 4.8 | 8.0 | 0.00 | 0.00 | 0.00 | 30 | 1021.5 |
| 20260507164547 | 15 | 357 | 6.4 | 8.0 | 0.00 | 0.00 | 0.00 | 31 | 1021.7 |
| 20260507164043 | 15 | 249 | 1.6 | 1.6 | 0.00 | 0.00 | 0.00 | 34 | 1021.5 |
| 20260507163540 | 14 | 55 | 6.4 | 9.7 | 0.00 | 0.00 | 0.00 | 35 | 1021.6 |
| 20260507163038 | 13 | 27 | 4.8 | 4.8 | 0.00 | 0.00 | 0.00 | 35 | 1021.6 |
| 20260507162533 | 14 | 15 | 9.7 | 12.9 | 0.00 | 0.00 | 0.00 | 34 | 1021.7 |
| 20260507162030 | 13 | 275 | 4.8 | 8.0 | 0.00 | 0.00 | 0.00 | 35 | 1021.8 |
| 20260507161526 | 13 | 119 | 4.8 | 8.0 | 0.00 | 0.00 | 0.00 | 35 | 1021.8 |
| 20260507161023 | 13 | 29 | 6.4 | 8.0 | 0.00 | 0.00 | 0.00 | 35 | 1022.1 |
| 20260507160519 | 13 | 47 | 8.0 | 11.3 | 0.00 | 0.00 | 0.00 | 36 | 1021.8 |
| 20260507160016 | 13 | 326 | 9.7 | 14.5 | 0.00 | 0.00 | 0.00 | 37 | 1021.8 |
| 20260507155511 | 13 | 74 | 6.4 | 9.7 | 0.00 | 0.00 | 0.00 | 38 | 1021.9 |
| 20260507155009 | 12 | 82 | 9.7 | 14.5 | 0.00 | 0.00 | 0.00 | 38 | 1021.9 |
| 20260507154505 | 12 | 37 | 14.5 | 16.1 | 0.00 | 0.00 | 0.00 | 38 | 1022.2 |
| 20260507154002 | 12 | 349 | 11.3 | 14.5 | 0.00 | 0.00 | 0.00 | 39 | 1022.2 |
| 20260507153459 | 12 | 65 | 12.9 | 16.1 | 0.00 | 0.00 | 0.00 | 40 | 1022.2 |
| 20260507152955 | 11 | 5 | 14.5 | 17.7 | 0.00 | 0.00 | 0.00 | 41 | 1022.4 |
| 20260507152451 | 11 | 70 | 6.4 | 9.7 | 0.00 | 0.00 | 0.00 | 41 | 1022.2 |
| 20260507151948 | 11 | 298 | 4.8 | 4.8 | 0.00 | 0.00 | 0.00 | 44 | 1022.3 |
| 20260507151444 | 11 | 42 | 4.8 | 4.8 | 0.00 | 0.00 | 0.00 | 45 | 1022.4 |
| 20260507150941 | 11 | 307 | 4.8 | 8.0 | 0.00 | 0.00 | 0.00 | 46 | 1022.2 |
| 20260507150438 | 10 | 17 | 6.4 | 9.7 | 0.00 | 0.00 | 0.00 | 47 | 1022.3 |
| 20260507145934 | 10 | 31 | 6.4 | 9.7 | 0.00 | 0.00 | 0.00 | 47 | 1022.4 |
| 20260507145430 | 10 | 318 | 8.0 | 9.7 | 0.00 | 0.00 | 0.00 | 48 | 1022.7 |
| 20260507144927 | 10 | 16 | 9.7 | 12.9 | 0.00 | 0.00 | 0.00 | 49 | 1022.5 |
| 20260507144424 | 10 | 315 | 4.8 | 8.0 | 0.00 | 0.00 | 0.00 | 50 | 1022.5 |
| 20260507143921 | 10 | 16 | 6.4 | 9.7 | 0.00 | 0.00 | 0.00 | 49 | 1022.5 |
| 20260507143418 | 10 | 27 | 11.3 | 14.5 | 0.00 | 0.00 | 0.00 | 48 | 1022.3 |
| 20260507142915 | 10 | 336 | 8.0 | 9.7 | 0.00 | 0.00 | 0.00 | 49 | 1022.4 |
| 20260507142410 | 10 | 34 | 9.7 | 14.5 | 0.00 | 0.00 | 0.00 | 49 | 1022.3 |
| 20260507141908 | 9 | 292 | 14.5 | 17.7 | 0.00 | 0.00 | 0.00 | 49 | 1022.4 |
| 20260507141404 | 9 | 310 | 6.4 | 9.7 | 0.00 | 0.00 | 0.00 | 50 | 1022.4 |
| 20260507140901 | 8 | 310 | 8.0 | 12.9 | 0.00 | 0.00 | 0.00 | 50 | 1022.5 |
| 20260507140357 | 8 | 275 | 8.0 | 11.3 | 0.00 | 0.00 | 0.00 | 51 | 1022.3 |
| 20260507135855 | 8 | 348 | 14.5 | 20.9 | 0.00 | 0.00 | 0.00 | 52 | 1022.5 |
| 20260507135352 | 8 | 14 | 8.0 | 11.3 | 0.00 | 0.00 | 0.00 | 52 | 1022.8 |
| 20260507134849 | 8 | 1 | 4.8 | 9.7 | 0.00 | 0.00 | 0.00 | 52 | 1022.4 |
| 20260507134345 | 7 | 293 | 12.9 | 17.7 | 0.00 | 0.00 | 0.00 | 53 | 1022.5 |
| 20260507133841 | 7 | 18 | 14.5 | 17.7 | 0.00 | 0.00 | 0.00 | 54 | 1022.4 |
| 20260507133337 | 7 | 18 | 8.0 | 11.3 | 0.00 | 0.00 | 0.00 | 55 | 1022.3 |
| 20260507132836 | 7 | 327 | 16.1 | 24.1 | 0.00 | 0.00 | 0.00 | 56 | 1022.3 |
| 20260507132332 | 7 | 321 | 9.7 | 12.9 | 0.00 | 0.00 | 0.00 | 56 | 1022.2 |
| 20260507131829 | 7 | 46 | 11.3 | 14.5 | 0.00 | 0.00 | 0.00 | 58 | 1022.1 |
| 20260507131325 | 7 | 293 | 9.7 | 11.3 | 0.00 | 0.00 | 0.00 | 60 | 1022.2 |
| 20260507130822 | 7 | 324 | 9.7 | 14.5 | 0.00 | 0.00 | 0.00 | 61 | 1022.3 |
| 20260507130319 | 6 | 313 | 9.7 | 12.9 | 0.00 | 0.00 | 0.00 | 61 | 1022.2 |
| 20260507125819 | 6 | 66 | 8.0 | 11.3 | 0.00 | 0.00 | 0.00 | 61 | 1022.3 |
| 20260507125316 | 6 | 328 | 11.3 | 12.9 | 0.00 | 0.00 | 0.00 | 62 | 1021.9 |
| 20260507124813 | 6 | 10 | 9.7 | 12.9 | 0.00 | 0.00 | 0.00 | 63 | 1022.1 |
| 20260507124309 | 6 | 346 | 14.5 | 16.1 | 0.00 | 0.00 | 0.00 | 64 | 1021.8 |
| 20260507123808 | 6 | 13 | 12.9 | 17.7 | 0.00 | 0.00 | 0.00 | 64 | 1022.1 |
| 20260507123305 | 5 | 283 | 8.0 | 12.9 | 0.00 | 0.00 | 0.00 | 65 | 1021.9 |
| 20260507122801 | 5 | 44 | 11.3 | 12.9 | 0.00 | 0.00 | 0.00 | 65 | 1021.9 |
| 20260507122256 | 5 | 321 | 11.3 | 16.1 | 0.00 | 0.00 | 0.00 | 65 | 1021.8 |
| 20260507121752 | 5 | 293 | 8.0 | 12.9 | 0.00 | 0.00 | 0.00 | 65 | 1021.8 |
| 20260507121248 | 5 | 292 | 11.3 | 16.1 | 0.00 | 0.00 | 0.00 | 65 | 1021.8 |
| 20260507120744 | 5 | 31 | 4.8 | 8.0 | 0.00 | 0.00 | 0.00 | 64 | 1021.8 |
| 20260507120241 | 5 | 333 | 4.8 | 8.0 | 0.00 | 0.00 | 0.00 | 64 | 1022.1 |
| 20260507115737 | 5 | 351 | 9.7 | 17.7 | 0.00 | 0.00 | 0.00 | 63 | 1021.7 |
| 20260507115233 | 5 | 14 | 11.3 | 12.9 | 0.00 | 0.00 | 0.00 | 62 | 1021.7 |
| 20260507114729 | 6 | 43 | 4.8 | 8.0 | 0.00 | 0.00 | 0.00 | 62 | 1021.9 |
| 20260507114227 | 6 | 6 | 4.8 | 4.8 | 0.00 | 0.00 | 0.00 | 61 | 1022.1 |
| 20260507113724 | 6 | 309 | 6.4 | 8.0 | 0.00 | 0.00 | 0.00 | 60 | 1021.8 |
| 20260507113221 | 6 | 339 | 4.8 | 4.8 | 0.00 | 0.00 | 0.00 | 59 | 1022.2 |
| 20260507112718 | 6 | 347 | 6.4 | 8.0 | 0.00 | 0.00 | 0.00 | 58 | 1022.1 |
| 20260507112215 | 5 | 11 | 3.2 | 3.2 | 0.00 | 0.00 | 0.00 | 57 | 1021.9 |
| 20260507111713 | 6 | 27 | 1.6 | 1.6 | 0.00 | 0.00 | 0.00 | 56 | 1022.1 |
| 20260507111210 | 6 | 38 | 1.6 | 1.6 | 0.00 | 0.00 | 0.00 | 55 | 1021.9 |
| 20260507110705 | 6 | 19 | 0.0 | 0.0 | 0.00 | 0.00 | 0.00 | 55 | 1021.9 |
| 20260507110202 | 6 | 20 | 1.6 | 3.2 | 0.00 | 0.00 | 0.00 | 54 | 1021.9 |
| 20260507105659 | 6 | 338 | 3.2 | 4.8 | 0.00 | 0.00 | 0.00 | 52 | 1022.1 |
| 20260507105155 | 6 | 344 | 1.6 | 1.6 | 0.00 | 0.00 | 0.00 | 51 | 1022.1 |
| 20260507104653 | 6 | 15 | 4.8 | 9.7 | 0.00 | 0.00 | 0.00 | 50 | 1021.9 |
| 20260507104149 | 6 | 314 | 4.8 | 4.8 | 0.00 | 0.00 | 0.00 | 48 | 1021.9 |
| 20260507103645 | 7 | 313 | 4.8 | 8.0 | 0.00 | 0.00 | 0.00 | 46 | 1022.2 |
| 20260507103142 | 7 | 332 | 6.4 | 8.0 | 0.00 | 0.00 | 0.00 | 45 | 1021.9 |
| 20260507102638 | 6 | 293 | 4.8 | 8.0 | 0.00 | 0.00 | 0.00 | 45 | 1021.8 |
| 20260507102134 | 7 | 287 | 6.4 | 8.0 | 0.00 | 0.00 | 0.00 | 42 | 1022.1 |
| 20260507101630 | 7 | 340 | 4.8 | 4.8 | 0.00 | 0.00 | 0.00 | 41 | 1021.6 |
| 20260507101126 | 7 | 16 | 8.0 | 11.3 | 0.00 | 0.00 | 0.00 | 40 | 1021.6 |
| 20260507100624 | 7 | 11 | 6.4 | 8.0 | 0.00 | 0.00 | 0.00 | 38 | 1021.6 |
| 20260507100122 | 6 | 335 | 8.0 | 9.7 | 0.00 | 0.00 | 0.00 | 36 | 1021.7 |
| 20260507095620 | 6 | 322 | 8.0 | 11.3 | 0.00 | 0.00 | 0.00 | 37 | 1021.6 |
| 20260507095116 | 7 | 316 | 3.2 | 3.2 | 0.00 | 0.00 | 0.00 | 36 | 1021.9 |
| 20260507094612 | 7 | 357 | 11.3 | 14.5 | 0.00 | 0.00 | 0.00 | 35 | 1021.8 |
| 20260507094109 | 7 | 345 | 6.4 | 8.0 | 0.00 | 0.00 | 0.00 | 34 | 1021.5 |
| 20260507093607 | 7 | 332 | 4.8 | 8.0 | 0.00 | 0.00 | 0.00 | 34 | 1021.7 |
| 20260507093105 | 6 | 329 | 4.8 | 11.3 | 0.00 | 0.00 | 0.00 | 35 | 1021.9 |
| 20260507092601 | 6 | 320 | 4.8 | 8.0 | 0.00 | 0.00 | 0.00 | 35 | 1021.8 |
| 20260507092058 | 7 | 319 | 4.8 | 8.0 | 0.00 | 0.00 | 0.00 | 34 | 1021.7 |
| 20260507091555 | 7 | 358 | 3.2 | 4.8 | 0.00 | 0.00 | 0.00 | 35 | 1021.9 |
| 20260507091051 | 6 | 300 | 1.6 | 3.2 | 0.00 | 0.00 | 0.00 | 35 | 1021.8 |
| 20260507090547 | 7 | 305 | 3.2 | 3.2 | 0.00 | 0.00 | 0.00 | 35 | 1021.9 |
| 20260507090044 | 7 | 298 | 3.2 | 4.8 | 0.00 | 0.00 | 0.00 | 34 | 1021.7 |
| 20260507085541 | 7 | 334 | 1.6 | 1.6 | 0.00 | 0.00 | 0.00 | 34 | 1021.9 |
| 20260507085038 | 7 | 9 | 4.8 | 4.8 | 0.00 | 0.00 | 0.00 | 33 | 1021.6 |
| 20260507084534 | 7 | 289 | 4.8 | 4.8 | 0.00 | 0.00 | 0.00 | 33 | 1021.9 |
| 20260507084031 | 7 | 347 | 4.8 | 4.8 | 0.00 | 0.00 | 0.00 | 34 | 1021.6 |
| 20260507083527 | 8 | 66 | 0.0 | 1.6 | 0.00 | 0.00 | 0.00 | 34 | 1021.8 |
| 20260507083025 | 8 | 59 | 0.0 | 0.0 | 0.00 | 0.00 | 0.00 | 33 | 1021.6 |
| 20260507082521 | 8 | 27 | 0.0 | 0.0 | 0.00 | 0.00 | 0.00 | 32 | 1021.4 |
| 20260507082017 | 10 | 58 | 0.0 | 0.0 | 0.00 | 0.00 | 0.00 | 29 | 1021.1 |
| 20260507081514 | 10 | 219 | 4.8 | 4.8 | 0.00 | 0.00 | 0.00 | 28 | 1021.4 |
| 20260507081011 | 10 | 299 | 6.4 | 9.7 | 0.00 | 0.00 | 0.00 | 28 | 1020.9 |
| 20260507080506 | 10 | 292 | 6.4 | 11.3 | 0.00 | 0.00 | 0.00 | 28 | 1020.9 |
| 20260507080003 | 10 | 289 | 9.7 | 12.9 | 0.00 | 0.00 | 0.00 | 28 | 1020.9 |
| 20260507075458 | 10 | 286 | 8.0 | 11.3 | 0.00 | 0.00 | 0.00 | 28 | 1020.9 |
| 20260507074955 | 10 | 255 | 9.7 | 12.9 | 0.00 | 0.00 | 0.00 | 28 | 1020.9 |
| 20260507074452 | 10 | 327 | 8.0 | 9.7 | 0.00 | 0.00 | 0.00 | 28 | 1021.0 |
| 20260507073950 | 10 | 314 | 6.4 | 9.7 | 0.00 | 0.00 | 0.00 | 27 | 1020.8 |
| 20260507073446 | 11 | 313 | 4.8 | 9.7 | 0.00 | 0.00 | 0.00 | 27 | 1020.9 |
| 20260507072943 | 11 | 317 | 8.0 | 11.3 | 0.00 | 0.00 | 0.00 | 26 | 1020.7 |
| 20260507072440 | 11 | 257 | 9.7 | 16.1 | 0.00 | 0.00 | 0.00 | 27 | 1020.8 |
| 20260507071937 | 11 | 267 | 11.3 | 12.9 | 0.00 | 0.00 | 0.00 | 27 | 1020.8 |
| 20260507071434 | 10 | 330 | 9.7 | 12.9 | 0.00 | 0.00 | 0.00 | 27 | 1020.7 |
| 20260507070931 | 11 | 343 | 8.0 | 11.3 | 0.00 | 0.00 | 0.00 | 27 | 1020.5 |
| 20260507070428 | 10 | 286 | 8.0 | 14.5 | 0.00 | 0.00 | 0.00 | 27 | 1020.8 |
| 20260507065925 | 10 | 319 | 9.7 | 12.9 | 0.00 | 0.00 | 0.00 | 28 | 1021.0 |
| 20260507065421 | 10 | 300 | 3.2 | 3.2 | 0.00 | 0.00 | 0.00 | 29 | 1020.7 |
| 20260507064913 | 10 | 296 | 4.8 | 4.8 | 0.00 | 0.00 | 0.00 | 28 | 1020.8 |
| 20260507064411 | 10 | 333 | 3.2 | 3.2 | 0.00 | 0.00 | 0.00 | 28 | 1020.5 |
| 20260507063909 | 11 | 298 | 4.8 | 4.8 | 0.00 | 0.00 | 0.00 | 28 | 1020.7 |
| 20260507063406 | 11 | 281 | 3.2 | 4.8 | 0.00 | 0.00 | 0.00 | 28 | 1021.0 |
| 20260507062903 | 11 | 299 | 4.8 | 8.0 | 0.00 | 0.00 | 0.00 | 27 | 1020.5 |
| 20260507062359 | 11 | 313 | 6.4 | 9.7 | 0.00 | 0.00 | 0.00 | 27 | 1020.9 |
| 20260507061857 | 11 | 248 | 6.4 | 8.0 | 0.00 | 0.00 | 0.00 | 27 | 1020.8 |
| 20260507061355 | 11 | 267 | 3.2 | 3.2 | 0.00 | 0.00 | 0.00 | 27 | 1020.8 |
| 20260507060853 | 11 | 301 | 8.0 | 11.3 | 0.00 | 0.00 | 0.00 | 26 | 1020.7 |
| 20260507060349 | 11 | 277 | 6.4 | 9.7 | 0.00 | 0.00 | 0.00 | 26 | 1020.5 |
| 20260507055846 | 12 | 263 | 9.7 | 14.5 | 0.00 | 0.00 | 0.00 | 26 | 1020.4 |
| 20260507055341 | 12 | 247 | 4.8 | 8.0 | 0.00 | 0.00 | 0.00 | 26 | 1020.5 |
| 20260507054839 | 12 | 353 | 4.8 | 4.8 | 0.00 | 0.00 | 0.00 | 25 | 1020.5 |